Marshfield, WI

5:14 AM CST on January 21, 2017 (GMT -0600)
Marshfield

Weather History for KMFI - July, 2011

Change the Weather History Date:

Wednesday, July 27, 2011

  Actual Average Record
Temperature  
Mean Temperature 68 °F -  
Max Temperature 77 °F 80 °F 97 °F (1931)
Min Temperature 60 °F 55 °F 43 °F (1981)
Cooling Degree Days 2    
Growing Degree Days 18 (Base 50)    
Moisture  
Dew Point 64 °F    
Average Humidity 89    
Maximum Humidity 100    
Minimum Humidity 68    
Precipitation  
Precipitation 1.08 in - - ()
Sea Level Pressure  
Sea Level Pressure 29.85 in    
Wind  
Wind Speed 8 mph (SSE)    
Max Wind Speed 15 mph    
Max Gust Speed 24 mph    
Visibility 6 miles    
Events Rain , Thunderstorm    
Averages and records for this station are not official NWS values.
T = Trace of Precipitation, MM = Missing Value Source: NWS Daily Summary

Daily Weather History Graph

Daily Weather History Graph

Search for Another Location

Airport or City:

Trip Planner

Search our weather history database for the weather conditions in past years. The results will help you decide how hot, cold, wet, or windy it might be!

Date:

Astronomy

Jul. 27, 2011 Rise Set
Actual Time 5:41 AM CDT 8:32 PM CDT
Civil Twilight 5:07 AM CDT 9:06 PM CDT
Nautical Twilight 4:23 AM CDT 9:49 PM CDT
Astronomical Twilight 3:32 AM CDT 10:40 PM CDT
Moon 2:19 AM CDT (7/27) 6:12 PM CDT (7/27)
Length of Visible Light 15h 59m
Length of Day
14h 51m
Waning Crescent, 11% of the Moon is Illuminated
Jul 27
Waning Crescent
Jul 30
New
Aug 6
First Quarter
Aug 13
Full
Aug 21
Last Quarter

Hourly Weather History & Observations

Time (CDT) Temp. Dew Point Humidity Pressure Visibility Wind Dir Wind Speed Gust Speed Precip Events Conditions
12:54 AM 64.9 °F 57.9 °F 78% 29.88 in 10.0 mi SE 5.8 mph - N/A   Clear
1:54 AM 64.9 °F 59.0 °F 81% 29.90 in 10.0 mi SE 5.8 mph - N/A   Partly Cloudy
2:54 AM 66.0 °F 59.0 °F 78% 29.88 in 10.0 mi SSE 8.1 mph - N/A   Overcast
3:25 AM 66.2 °F 57.2 °F 73% 29.87 in 10.0 mi SE 9.2 mph - N/A   Overcast
3:54 AM 66.0 °F 57.0 °F 73% 29.85 in 10.0 mi SE 9.2 mph - N/A   Overcast
4:54 AM 66.9 °F 55.9 °F 68% 29.84 in 10.0 mi SE 10.4 mph - N/A   Overcast
5:25 AM 66.2 °F 57.2 °F 73% 29.86 in 8.0 mi SSE 10.4 mph - 0.00 in Rain , Thunderstorm Rain
5:54 AM 63.0 °F 57.9 °F 84% 29.88 in 2.5 mi SSE 8.1 mph 19.6 mph 0.12 in Rain , Thunderstorm Heavy Rain
6:14 AM 62.6 °F 59.0 °F 88% 29.90 in 5.0 mi SSE 10.4 mph - 0.08 in Rain Rain
6:49 AM 62.6 °F 59.0 °F 88% 29.91 in 4.0 mi SE 9.2 mph - 0.23 in Rain , Thunderstorm Heavy Rain
6:54 AM 62.1 °F 59.0 °F 90% 29.89 in 5.0 mi SE 11.5 mph - 0.24 in Rain , Thunderstorm Heavy Rain
7:01 AM 62.6 °F 59.0 °F 88% 29.90 in 5.0 mi SE 11.5 mph - 0.01 in Rain Rain
7:27 AM 60.8 °F 59.0 °F 94% 29.91 in 3.0 mi SSE 11.5 mph - 0.08 in Rain Heavy Rain
7:41 AM 60.8 °F 60.8 °F 100% 29.91 in 2.0 mi SE 10.4 mph - 0.14 in Rain Heavy Rain
7:45 AM 60.8 °F 60.8 °F 100% 29.90 in 1.8 mi SE 11.5 mph - 0.18 in Rain Heavy Rain
7:54 AM 61.0 °F 60.1 °F 97% 29.89 in 1.8 mi SE 10.4 mph - 0.23 in Rain Heavy Rain
8:06 AM 60.8 °F 60.8 °F 100% 29.90 in 2.0 mi SE 9.2 mph - 0.07 in Rain Heavy Rain
8:54 AM 61.0 °F 60.1 °F 97% 29.88 in 3.0 mi SSE 13.8 mph 23.0 mph 0.28 in Rain Heavy Rain
9:35 AM 62.6 °F 60.8 °F 94% 29.85 in 10.0 mi SSE 12.7 mph - 0.01 in Rain Light Rain
9:54 AM 62.1 °F 61.0 °F 96% 29.83 in 6.0 mi SSE 15.0 mph 24.2 mph 0.02 in Rain Light Rain
10:54 AM 64.0 °F 63.0 °F 96% 29.88 in 2.5 mi SSW 11.5 mph 19.6 mph 0.06 in Rain Rain
11:02 AM 64.4 °F 62.6 °F 94% 29.88 in 4.0 mi South 10.4 mph - 0.01 in Rain Rain
11:07 AM 64.4 °F 62.6 °F 94% 29.87 in 2.5 mi South 10.4 mph - 0.03 in Rain Heavy Rain
11:16 AM 64.4 °F 62.6 °F 94% 29.86 in 3.0 mi South 11.5 mph - 0.06 in Rain Rain
11:54 AM 64.9 °F 64.0 °F 97% 29.81 in 5.0 mi SE 9.2 mph - 0.13 in Rain Rain
12:54 PM 68.0 °F 64.9 °F 90% 29.81 in 10.0 mi SSE 12.7 mph - 0.00 in   Overcast
1:10 PM 68.0 °F 64.4 °F 88% 29.83 in 10.0 mi South 8.1 mph 18.4 mph N/A   Overcast
1:54 PM 68.0 °F 66.0 °F 93% 29.82 in 10.0 mi South 13.8 mph 21.9 mph N/A   Overcast
2:32 PM 71.6 °F 66.2 °F 83% 29.79 in 10.0 mi SE 9.2 mph - N/A   Scattered Clouds
2:54 PM 72.0 °F 68.0 °F 87% 29.77 in 10.0 mi SE 11.5 mph - N/A   Partly Cloudy
3:22 PM 73.4 °F 69.8 °F 88% 29.80 in 10.0 mi South 10.4 mph - N/A   Mostly Cloudy
3:39 PM 73.4 °F 69.8 °F 88% 29.80 in 10.0 mi South 10.4 mph - N/A   Overcast
4:50 PM 75.2 °F 69.8 °F 83% 29.81 in 10.0 mi SSW 11.5 mph - N/A   Mostly Cloudy
4:54 PM 73.9 °F 69.1 °F 85% 29.80 in 9.0 mi SSW 10.4 mph - N/A   Mostly Cloudy
5:26 PM 73.4 °F 69.8 °F 88% 29.81 in 9.0 mi SSW 9.2 mph - N/A   Overcast
5:54 PM 73.0 °F 69.1 °F 87% 29.81 in 8.0 mi SW 6.9 mph - N/A   Overcast
6:04 PM 73.4 °F 69.8 °F 88% 29.81 in 8.0 mi SSW 6.9 mph - N/A   Overcast
6:38 PM 73.4 °F 69.8 °F 88% 29.82 in 8.0 mi South 3.5 mph - N/A   Overcast
6:54 PM 73.9 °F 69.1 °F 85% 29.82 in 8.0 mi SSW 5.8 mph - N/A   Overcast
8:54 PM 71.1 °F 69.1 °F 93% 29.81 in 5.0 mi ESE 3.5 mph - N/A   Clear
9:22 PM 71.6 °F 69.8 °F 94% 29.84 in 5.0 mi Calm Calm - N/A   Mostly Cloudy
9:54 PM 72.0 °F 70.0 °F 93% 29.83 in 5.0 mi Calm Calm - N/A   Overcast
10:14 PM 71.6 °F 69.8 °F 94% 29.84 in 5.0 mi Calm Calm - N/A   Overcast
10:43 PM 71.6 °F 69.8 °F 94% 29.85 in 5.0 mi Calm Calm - N/A   Overcast
10:52 PM 71.6 °F 69.8 °F 94% 29.84 in 5.0 mi Calm Calm - N/A   Overcast
10:54 PM 71.1 °F 70.0 °F 96% 29.83 in 5.0 mi Calm Calm - N/A   Overcast